Simultaneous Nadir Overpasses (SNOs) Predictions

Prediction of SNOs between METOP-A and NOAA-19 Satellite Orbit:

Table of predicted SNOs for the next 14.0 days since TLE Epoch: 3/23/2012
Index Date (METOP-A) Time (METOP-A) METOP-A Lat,Lon Date (NOAA-19) Time (NOAA-19) NOAA-19 Lat,Lon Distance(km) Time Diff (sec)
1 03/28/2012 11:34:25 73.67, 0.26 03/28/2012 11:33:17 73.67, -2.26 78.84 68
2 03/28/2012 12:25:18 -73.11, 166.33 03/28/2012 12:24:07 -73.11, 166.27 2.18 71
3 03/28/2012 13:15:59 73.04, -26.48 03/28/2012 13:15:10 73.05, -26.37 3.68 49
4 03/28/2012 14:06:41 -73.03, 140.83 03/28/2012 14:06:11 -73.04, 140.90 2.32 30
5 03/28/2012 14:57:21 73.02, -51.86 03/28/2012 14:57:15 73.03, -51.85 1.65 6
6 03/28/2012 15:48:03 -73.01, 115.45 03/28/2012 15:48:16 -73.02, 115.42 1.55 13
7 03/28/2012 16:38:43 73.00, -77.25 03/28/2012 16:39:20 73.01, -77.32 2.96 37
8 03/28/2012 17:29:26 -72.94, 89.95 03/28/2012 17:30:20 -72.95, 90.05 3.55 54
9 03/28/2012 18:20:09 72.77,-103.07 03/28/2012 18:21:21 72.79,-102.37 22.95 72




NCC Satellite Simultaneous Nadir Overpasses (SNOs) Prediction Service
